sat.trackr.live / text

‹ back to catalog

KUIPER-00380

NORAD 68920 · 2026-098B

PAYLOAD ACTIVE UNKNOWN

§ Identity

Operator
Country
US
Launch date
2026-04-30
Launch site
FRGUI
Launch vehicle
Mass (kg)
RCS (m²)

External: N2YO · Heavens-Above · Gunter

§ Orbital elements

Epoch: 2026-05-25T01:35:07.639296Z

Period
93.92 min
Inclination
51.8747°
Eccentricity
0.0008713
Mean motion
15.33280705 rev/d
Perigee alt
460.1 km
Apogee alt
472.0 km
Semi-major
6,844.2 km
B*
3.9848e-5
RAAN
179.2886°
Arg perigee
60.6102°
Mean anomaly
299.5752°
Rev number
379

§ Raw data

KUIPER-003801 68920U 26098B   26145.06606064  .00000924  00000+0  39848-4 0  99962 68920  51.8747 179.2886 0008713  60.6102 299.5752 15.33280705  3796

JSON: /api/v1/satellites/68920 · /tle

For live sub-satellite position, see the globe view (requires WebGL).

§ Visibility from observer

Set your observer location to see the next 7 days of passes ≥ 10°. The values pass through the URL so the page stays shareable.

No JS? Fill the form by hand. The geolocation button needs JavaScript.